Total_Precipitation_Accumulation
0.65 0.80 0.84 0.79 0.79 0.84 0.90 0.95 1.00 0.97 0.96 0.90 0.80 0.74 0.73 0.71 0.63 0.54 0.42 0.38 0.37 0.35 0.34 0.34 0.36 0.42 0.46 0.51 0.57 0.67 0.74 0.81 0.93 1.09 1.35 1.62 1.82 2.04
0.84 0.93 0.96 0.98 0.96 0.88 0.92 0.97 1.00 1.06 1.02 0.85 0.78 0.79 0.71 0.56 0.53 0.47 0.40 0.42 0.39 0.36 0.33 0.31 0.30 0.35 0.39 0.40 0.38 0.41 0.46 0.50 0.55 0.61 0.71 0.86 1.03 1.25
0.99 1.09 1.14 1.18 1.17 1.04 0.98 0.96 0.96 1.05 0.99 0.83 0.78 0.80 0.69 0.53 0.46 0.44 0.41 0.40 0.36 0.37 0.33 0.30 0.29 0.29 0.33 0.35 0.34 0.34 0.35 0.36 0.40 0.44 0.48 0.54 0.59 0.67
1.05 1.23 1.32 1.27 1.16 1.07 1.05 1.00 0.98 1.07 1.02 0.93 0.90 0.85 0.77 0.67 0.58 0.51 0.43 0.40 0.38 0.40 0.36 0.31 0.29 0.28 0.27 0.27 0.28 0.27 0.29 0.30 0.31 0.33 0.35 0.39 0.40 0.42
1.06 1.12 1.14 1.20 1.16 1.08 1.02 0.98 0.97 1.07 1.07 0.98 1.03 1.03 0.92 0.80 0.69 0.58 0.49 0.47 0.40 0.38 0.39 0.36 0.33 0.28 0.26 0.25 0.25 0.25 0.24 0.23 0.25 0.27 0.30 0.34 0.34 0.34
0.93 0.97 0.99 1.03 1.08 1.14 1.07 1.02 1.04 1.06 1.07 1.06 1.08 1.21 1.12 0.96 0.79 0.66 0.57 0.52 0.47 0.35 0.36 0.40 0.37 0.32 0.28 0.26 0.25 0.24 0.25 0.23 0.23 0.24 0.24 0.26 0.31 0.37
0.69 0.70 0.80 0.98 1.07 1.13 1.05 1.03 1.09 1.08 1.07 1.12 1.14 1.26 1.29 1.13 0.90 0.70 0.61 0.58 0.54 0.48 0.41 0.34 0.32 0.28 0.26 0.27 0.27 0.25 0.22 0.23 0.22 0.21 0.21 0.24 0.29 0.39
0.60 0.58 0.58 0.71 0.86 0.96 0.95 0.93 0.99 1.04 1.08 1.10 1.17 1.24 1.30 1.22 1.05 0.89 0.74 0.63 0.58 0.56 0.58 0.50 0.39 0.33 0.27 0.23 0.25 0.27 0.26 0.23 0.22 0.20 0.19 0.19 0.23 0.33
0.55 0.53 0.45 0.45 0.61 0.71 0.80 0.83 0.81 0.80 0.88 1.04 1.15 1.17 1.29 1.34 1.27 1.07 0.96 0.83 0.66 0.61 0.66 0.64 0.55 0.44 0.33 0.30 0.34 0.28 0.27 0.27 0.26 0.26 0.23 0.18 0.18 0.21
0.50 0.51 0.53 0.53 0.53 0.58 0.68 0.76 0.78 0.74 0.73 0.80 0.94 1.12 1.29 1.45 1.44 1.31 1.21 1.06 0.86 0.75 0.73 0.69 0.62 0.54 0.44 0.37 0.38 0.33 0.30 0.29 0.28 0.33 0.42 0.42 0.29 0.24
0.59 0.60 0.59 0.55 0.52 0.47 0.53 0.58 0.63 0.72 0.70 0.71 0.80 1.00 1.19 1.34 1.49 1.43 1.30 1.12 0.92 0.78 0.72 0.65 0.59 0.59 0.55 0.45 0.40 0.39 0.34 0.30 0.30 0.32 0.46 0.70 0.77 0.60
0.78 0.73 0.59 0.49 0.42 0.37 0.42 0.50 0.52 0.55 0.65 0.70 0.73 0.84 0.99 1.12 1.27 1.27 1.14 1.08 0.91 0.76 0.65 0.62 0.55 0.59 0.62 0.53 0.44 0.39 0.36 0.35 0.36 0.39 0.54 0.86 1.01 0.89
0.80 0.75 0.69 0.53 0.40 0.35 0.36 0.43 0.45 0.53 0.62 0.68 0.79 0.92 1.07 1.19 1.19 1.16 1.11 0.99 0.89 0.69 0.54 0.61 0.57 0.52 0.51 0.48 0.44 0.42 0.38 0.35 0.34 0.38 0.48 0.74 0.99 0.97
0.89 0.84 0.79 0.63 0.45 0.41 0.36 0.35 0.36 0.39 0.54 0.61 0.68 0.81 0.96 1.12 1.21 1.27 1.25 1.11 0.93 0.80 0.71 0.70 0.63 0.57 0.50 0.43 0.41 0.41 0.44 0.42 0.40 0.38 0.40 0.56 0.70 0.95
1.00 1.02 0.89 0.74 0.61 0.52 0.50 0.47 0.42 0.40 0.52 0.63 0.64 0.68 0.77 0.92 1.20 1.43 1.53 1.45 1.18 0.91 0.81 0.75 0.67 0.63 0.61 0.48 0.39 0.38 0.42 0.47 0.45 0.45 0.45 0.48 0.59 0.75
1.07 1.11 0.99 0.91 0.77 0.64 0.59 0.54 0.47 0.45 0.51 0.60 0.64 0.71 0.82 0.96 1.14 1.34 1.54 1.57 1.41 1.04 0.86 0.80 0.74 0.73 0.68 0.58 0.48 0.39 0.35 0.39 0.43 0.47 0.53 0.56 0.66 0.75
1.12 1.22 1.16 1.07 1.00 0.89 0.81 0.75 0.70 0.64 0.59 0.61 0.74 0.81 0.89 0.93 1.02 1.16 1.37 1.48 1.35 1.02 0.83 0.81 0.85 0.86 0.82 0.78 0.64 0.47 0.40 0.35 0.36 0.45 0.55 0.57 0.61 0.66
1.00 1.17 1.15 1.08 1.05 1.03 0.99 0.94 0.89 0.83 0.78 0.78 0.83 0.90 0.93 0.96 1.02 1.12 1.23 1.33 1.28 1.08 0.89 0.79 0.87 0.94 0.89 0.79 0.65 0.52 0.44 0.40 0.41 0.52 0.58 0.55 0.51 0.55
0.81 0.99 1.01 1.01 1.03 1.07 1.05 0.97 0.90 0.91 0.94 0.92 0.88 0.93 0.98 1.00 1.04 1.11 1.16 1.24 1.27 1.21 1.06 0.93 0.89 0.90 0.79 0.61 0.51 0.50 0.50 0.48 0.54 0.57 0.59 0.57 0.49 0.46
0.73 0.86 0.92 0.95 0.99 1.05 1.04 1.03 1.00 1.02 1.05 1.01 0.98 0.99 1.06 1.09 1.07 1.08 1.15 1.18 1.23 1.26 1.22 1.06 0.92 0.84 0.74 0.62 0.55 0.48 0.46 0.50 0.56 0.56 0.57 0.60 0.56 0.55
0.80 0.86 0.91 0.92 0.95 1.02 1.05 1.06 1.08 1.11 1.10 1.10 1.10 1.11 1.16 1.22 1.13 1.07 1.13 1.20 1.17 1.20 1.15 1.02 0.91 0.95 0.97 0.93 0.72 0.51 0.49 0.48 0.51 0.55 0.60 0.65 0.62 0.62
0.87 0.87 0.92 0.94 0.96 0.98 1.02 1.03 1.06 1.11 1.11 1.12 1.17 1.20 1.20 1.21 1.14 1.10 1.10 1.15 1.10 1.06 1.07 1.12 1.21 1.23 1.12 0.97 0.74 0.61 0.61 0.58 0.55 0.55 0.54 0.54 0.54 0.51
0.89 0.89 0.90 0.88 0.89 0.93 0.96 0.99 1.07 1.11 1.11 1.11 1.16 1.21 1.21 1.19 1.14 1.13 1.11 1.11 1.15 1.16 1.22 1.28 1.36 1.30 1.12 0.98 0.83 0.74 0.71 0.70 0.66 0.59 0.53 0.48 0.42 0.37